Regional Weather Roundup
Issued by NWS Green Bay, WI

Home | Current Version | Previous Version | Graphics & Text | Print | Product List | Glossary Off
Versions: 1 2 3 4 5 6 7 8 9 10 11 12 13 14 15 16 17 18 19 20 21 22 23 24 25 26 27 28 29 30 31 32 33 34 35 36 37 38 39 40 41 42 43 44 45 46 47 48 49 50

000
ASUS43 KGRB 281211
RWRGRB

NORTH-CENTRAL AND NORTHEAST WISCONSIN REGIONAL WEATHER ROUNDUP
NATIONAL WEATHER SERVICE GREEN BAY WI
700 AM CDT THU JUL 28 2016

WIZ005-009-010>012-018-019-281300-
NORTH CENTRAL WISCONSIN

CITY           SKY/WX    TMP DP  RH WIND       PRES   REMARKS
IRONWOOD       CLOUDY    59  57  94 NE8       30.04F
MANITOWISH WTR CLOUDY    60  59  97 NE8       30.06R
ARBOR VITAE    CLOUDY    61  58  91 NE3       30.06R
EAGLE RIVER    CLOUDY    59  58  97 NE5       30.05S
LAND O LAKES   CLOUDY    60  57  91 NE5       30.06S
RHINELANDER    CLOUDY    60  57  89 NE6       30.05R
PHILLIPS       CLOUDY    61  61  99 NE6       30.03S
ANTIGO         RAIN      58  58 100 NE6       30.04R
TOMAHAWK       CLOUDY    59  58  94 NE6       30.04S
MERRILL        DRIZZLE   59  59 100 NE6       30.04R
$$

WIZ013-073-281300-
NORTHEAST WISCONSIN

CITY           SKY/WX    TMP DP  RH WIND       PRES   REMARKS
IRON MOUNTAIN  CLOUDY    60  56  86 CALM      30.03R
MARINETTE      HVY RAIN N/A N/A N/A NE8       30.02R
OCONTO         CLOUDY   N/A N/A N/A NE7       30.00S
$$

WIZ017-030-035>037-045-281300-
CENTRAL WISCONSIN

CITY           SKY/WX    TMP DP  RH WIND       PRES   REMARKS
MEDFORD        DRIZZLE   61  61 100 NE8       30.01R
WAUSAU         LGT RAIN  60  59  96 E3        30.00R
MOSINEE        HVY RAIN  59  59 100 E12       30.01R
MARSHFIELD     LGT RAIN  63  60  90 NE14G21   29.97S FOG
WISC RAPIDS    CLOUDY    66  63  90 E12       29.98R
STEVENS POINT  RAIN      60  60  99 NE14      29.99R
WAUPACA        CLOUDY    66  66  98 NE5       29.98S
SHAWANO        CLOUDY    63  60  90 NE10      30.02R
CLINTONVILLE   CLOUDY    61  59  94 NE8       30.00R
WAUTOMA        CLOUDY    67  66  97 NE7       29.97R
$$

WIZ038-039-048-051-281300-
FOX VALLEY

CITY           SKY/WX    TMP DP  RH WIND       PRES   REMARKS
NWS GREEN BAY  LGT RAIN  64  64 100 NE10      29.99R
APPLETON       PTSUNNY   64  63  94 NE10      29.96R
OSHKOSH        CLOUDY    67  61  81 NE12      29.96R
FOND DU LAC    CLOUDY    67  62  84 NE9       29.96R
$$

WIZ022-050-052-281300-
EAST CENTRAL WISCONSIN

CITY           SKY/WX    TMP DP  RH WIND       PRES   REMARKS
EPHRAIM        CLOUDY    59  58  96 CALM      30.01S
WASHINGTON ISL NOT AVBL
STURGEON BAY   CLOUDY    62  60  93 NE7       30.01S
MANITOWOC      LGT RAIN  65  60  84 NE10      29.98S
SHEBOYGAN      CLOUDY    66  61  84 NE14      29.96R
$$

LMZ563-521-522-541>543-281300-
LAKESHORE

STATION/POSITION TIME  TEMP    WIND        PRES    VSBY  WAVE
                       AIR SEA DIR/SP/G                  HT/PER
                 (UTC) (F)     (DEG/KT/KT) (MB)    (MI)  (FT/S)
SHEBOYGAN LKSHOR 1200   60     350/ 16/ 17 1014.6R
KEWAUNEE LKSHORE 1100   63      30/  4/  8 1015.0R
ALGOMA MARINA    1113           70/ 12/ 17   N/A
NORTHPORT PIER   1100   63      30/  9/ 12 1016.3R
N MID LAKE BUOY  1150   64 69   60/ 10/ 12 1015.4R         2/ 4
SISTER BAY LKSHO 1136   59     130/  4/  8   N/A
CHAMBERS ISLAND  1100   65     360/ 14/ 18 1015.9R
MENOMINEE LKSHOR 1100   63      10/ 12/ 16 1015.3R
$$



USA.gov is the U.S. government's official web portal to all federal, state and local government web resources and services.